Overview Statistics Trail Chart Weather Telemetry Raw packets
 

This is the latest recevied weather packets stored in our database for station/object SV7GBF-2. If no packets are shown the sender has not sent any weather packets the latest 10 day(s).

<< 41 42 43 44 45 46 47 >>
Time Temp. Humidity Pressure Rain* Wind** Luminosity Snow
1787880843 24.44° C 58% 1016 hPa - - - -
1787880243 24.44° C 55% 1016 hPa - - - -
1787879044 25° C 53% 1016 hPa - - - -
1787878450 25° C 51% 1016 hPa - - - -
1787877843 25° C 50% 1016 hPa - - - -
1787877243 25° C 50% 1016 hPa - - - -
1787876642 25.56° C 47% 1016 hPa - - - -
1787876044 25° C 48% 1016 hPa - - - -
1787875445 25.56° C 47% 1016 hPa - - - -
1787874665 25.56° C 44% 1016 hPa - - - -
1787873464 25.56° C 43% 1016 hPa - - - -
1787872863 26.11° C 44% 1016 hPa - - - -
1787872265 26.11° C 42% 1016 hPa - - - -
1787871851 26.11° C 42% 1016 hPa - - - -
1787871248 26.11° C 43% 1016 hPa - - - -
1787870648 26.11° C 43% 1016 hPa - - - -
1787870048 26.11° C 43% 1016 hPa - - - -
1787869448 26.11° C 41% 1016 hPa - - - -
1787868848 26.11° C 41% 1016 hPa - - - -
1787868248 26.11° C 41% 1016 hPa - - - -
1787867648 26.11° C 41% 1016 hPa - - - -
1787867048 26.67° C 39% 1016 hPa - - - -
1787865249 26.11° C 39% 1016 hPa - - - -
1787864648 26.67° C 47% 1016 hPa - - - -
1787863448 26.67° C 35% 1016 hPa - - - -

* Rain since midnight (hover to see other rain measurements)
** Current wind speed in m/s (hover to see current wind gust speed)